EW0941 Weather Reports


time (UTC)temp
C
wind
direction
speed
KPH
gust
KPH
rain 1hr
cm
rain 24hr
cm
rain mn
cm
humidity
%
barometer
mb
20260507085546 7 313 0.0 0.0 0.00 1.50 0.25 95 1006.1
20260507085044 7 313 0.0 0.0 0.00 1.50 0.25 95 1006.6
20260507084544 7 309 0.0 0.0 0.00 1.50 0.25 95 1006.3
20260507084043 7 308 0.0 0.0 0.00 1.50 0.25 95 1006.2
20260507083544 7 312 0.0 0.0 0.00 1.50 0.25 95 1005.9
20260507083042 7 313 0.0 0.0 0.00 1.50 0.25 95 1005.9
20260507082542 7 311 0.0 0.0 0.00 1.50 0.25 95 1006.2
20260507082041 7 311 0.0 0.0 0.00 1.50 0.25 95 1006.5
20260507081541 7 311 0.0 0.0 0.00 1.50 0.25 95 1006.3
20260507081038 7 307 0.0 0.0 0.00 1.50 0.25 95 1005.9
20260507080539 7 331 0.0 0.0 0.00 1.50 0.25 95 1005.9
20260507080038 7 336 0.0 0.0 0.00 1.50 0.25 95 1005.8
20260507075538 7 312 0.0 0.0 0.00 1.50 0.25 95 1005.8
20260507075040 7 61 0.0 0.0 0.00 1.50 0.25 95 1005.8
20260507074542 7 271 0.0 0.0 0.00 1.50 0.25 95 1005.8
20260507074034 8 297 0.0 0.0 0.00 1.50 0.25 96 1005.7
20260507073538 8 297 0.0 0.0 0.00 1.50 0.25 96 1005.8
20260507073039 8 320 0.0 0.0 0.00 1.50 0.25 96 1005.8
20260507072533 8 299 0.0 0.0 0.00 1.50 0.25 96 1005.7
20260507072033 8 299 0.0 0.0 0.00 1.50 0.25 96 1005.6
20260507071534 8 303 0.0 0.0 0.00 1.50 0.25 96 1005.7
20260507071030 8 284 0.0 0.0 0.00 1.50 0.25 96 1005.5
20260507070533 8 305 0.0 0.0 0.00 1.50 0.25 96 1005.4
20260507070031 8 248 0.0 0.0 0.00 1.50 0.25 96 1005.4
20260507065529 8 316 0.0 0.0 0.00 1.50 0.25 96 1005.3
20260507065029 8 317 0.0 0.0 0.00 1.50 0.25 96 1005.3
20260507064528 8 317 0.0 0.0 0.00 1.50 0.25 96 1005.3
20260507064028 8 317 0.0 0.0 0.00 1.50 0.25 96 1005.2
20260507063527 8 317 0.0 0.0 0.00 1.50 0.25 96 1005.1
20260507063039 8 317 0.0 0.0 0.00 1.50 0.25 96 1004.9
20260507062526 8 317 0.0 0.0 0.00 1.50 0.25 96 1004.9
20260507062025 8 317 0.0 0.0 0.00 1.50 0.25 96 1004.8
20260507061527 8 317 0.0 0.0 0.00 1.50 0.25 96 1004.9
20260507061024 8 317 0.0 0.0 0.03 1.50 0.25 96 1005.0
20260507060526 8 317 0.0 0.0 0.03 1.50 0.25 96 1005.0
20260507060040 8 317 0.0 0.0 0.03 1.50 0.25 96 1004.9
20260507055524 8 317 0.0 0.0 0.03 1.50 0.25 96 1004.9
20260507055023 9 317 0.0 0.0 0.03 1.50 0.25 96 1005.0
20260507054521 9 287 0.0 0.0 0.03 1.50 0.25 96 1005.0
20260507054021 9 327 0.0 0.0 0.03 1.50 0.25 96 1004.9
20260507053520 9 300 0.0 0.0 0.08 1.50 0.25 96 1004.9
20260507053019 10 313 0.0 0.0 0.10 1.50 0.25 97 1004.7
20260507052518 10 311 0.0 0.0 0.15 1.50 0.25 97 1004.9
20260507052018 10 327 0.0 0.0 0.20 1.50 0.25 96 1005.0
20260507051518 10 328 0.0 0.0 0.23 1.50 0.25 96 1004.9
20260507051016 10 294 0.0 0.0 0.23 1.45 0.23 97 1004.9
20260507050516 10 338 0.0 0.0 0.23 1.45 0.23 97 1005.0
20260507050014 10 318 0.0 0.0 0.23 1.45 0.23 97 1005.0
20260507045514 10 20 0.0 0.0 0.25 1.45 0.23 97 1004.7
20260507045013 10 315 0.0 0.0 0.25 1.45 0.23 97 1004.8
20260507044515 11 347 0.0 0.0 0.25 1.45 0.23 97 1005.0
20260507044012 11 327 0.0 0.0 0.23 1.42 0.20 97 1005.0
20260507043514 11 331 0.0 0.0 0.20 1.42 0.18 97 1004.7
20260507043012 11 290 0.0 0.0 0.18 1.40 0.15 98 1004.9
20260507042512 11 336 0.0 0.0 0.15 1.35 0.10 98 1005.0
20260507042010 11 307 0.0 0.0 0.13 1.30 0.05 97 1004.9
20260507041508 11 307 0.0 0.0 0.10 1.27 0.03 97 1004.7
20260507041008 11 307 0.0 0.0 0.08 1.24 0.00 97 1004.3
20260507040506 10 307 0.0 0.0 0.08 1.24 0.00 97 1004.2
20260507040006 10 307 0.0 0.0 0.08 1.24 1.24 98 1004.1
20260507035505 10 307 0.0 0.0 0.05 1.22 1.22 98 1004.1
20260507035005 10 309 0.0 0.0 0.05 1.22 1.22 97 1004.2
20260507034513 10 302 0.0 0.0 0.05 1.22 1.22 97 1004.3
20260507034007 10 163 0.0 0.0 0.05 1.22 1.22 97 1003.8
20260507033507 10 163 0.0 0.0 0.08 1.22 1.22 97 1003.8
20260507033004 10 163 0.0 0.0 0.08 1.22 1.22 97 1003.8
20260507032504 10 163 0.0 0.0 0.05 1.19 1.19 97 1003.8
20260507032005 10 163 0.0 0.0 0.03 1.17 1.17 97 1003.9
20260507031504 10 163 0.0 0.0 0.03 1.17 1.17 97 1003.9
20260507031004 10 163 0.0 0.0 0.03 1.17 1.17 97 1003.9
20260507030503 10 163 0.0 0.0 0.03 1.17 1.17 97 1003.8
20260507030005 10 163 0.0 0.0 0.03 1.17 1.17 97 1003.9
20260507025502 10 163 0.0 0.0 0.03 1.17 1.17 97 1003.9
20260507025001 10 163 0.0 0.0 0.05 1.17 1.17 97 1004.0
20260507024501 10 163 0.0 0.0 0.05 1.17 1.17 97 1004.1
20260507024002 10 163 0.0 0.0 0.08 1.17 1.17 97 1004.1
20260507023600 10 163 0.0 0.0 0.05 1.14 1.14 97 1004.0
20260507023101 10 163 0.0 0.0 0.08 1.14 1.14 97 1004.1
20260507022601 10 167 0.0 0.0 0.08 1.14 1.14 97 1004.2
20260507022100 10 174 0.0 0.0 0.10 1.14 1.14 97 1004.2
20260507021600 10 170 0.0 0.0 0.10 1.14 1.14 97 1004.3
20260507021058 10 194 0.0 0.0 0.10 1.14 1.14 97 1004.3
20260507020600 10 211 0.0 0.0 0.13 1.14 1.14 97 1004.4
20260507020058 10 200 0.0 0.0 0.13 1.14 1.14 97 1004.4
20260507015556 10 196 0.0 0.0 0.13 1.14 1.14 97 1004.5
20260507015055 10 157 0.0 0.0 0.10 1.12 1.12 97 1004.6
20260507014558 10 200 0.0 0.0 0.10 1.12 1.12 97 1004.7
20260507014056 10 264 0.0 0.0 0.08 1.09 1.09 97 1004.7
20260507013554 10 171 0.0 0.0 0.05 1.07 1.07 97 1004.7
20260507013110 10 153 0.0 0.0 0.05 1.07 1.07 97 1004.8
20260507012556 10 171 0.0 0.0 0.05 1.07 1.07 97 1004.8
20260507012053 10 113 0.0 0.0 0.03 1.04 1.04 97 1004.9
20260507011552 10 134 0.0 0.0 0.03 1.04 1.04 97 1005.0
20260507011052 10 163 0.0 0.0 0.03 1.04 1.04 97 1005.0
20260507010552 10 240 0.0 0.0 0.00 1.02 1.02 96 1005.0
20260507005552 10 210 0.0 0.0 0.00 1.02 1.02 96 1005.0
20260507005050 10 142 0.0 0.0 0.00 1.02 1.02 96 1005.1
20260507004552 10 184 0.0 0.0 0.00 1.02 1.02 96 1005.1
20260507004055 10 243 0.0 1.6 0.00 1.02 1.02 96 1005.2
20260507003552 10 157 0.0 3.2 0.00 1.02 1.02 96 1005.2
20260507003050 10 198 0.0 3.2 0.00 1.02 1.02 96 1005.1
20260507002550 10 184 0.0 1.6 0.00 1.02 1.02 96 1005.1
20260507002050 10 211 0.0 0.0 0.00 1.02 1.02 96 1005.2
20260507001552 10 229 0.0 3.2 0.00 1.02 1.02 96 1005.3
20260507001049 10 360 0.0 3.2 0.03 1.02 1.02 97 1005.2
20260507000552 10 184 0.0 3.2 0.03 1.02 1.02 97 1005.1
20260507000049 10 145 0.0 1.6 0.03 1.02 1.02 96 1005.2
20260506235549 10 159 0.0 1.6 0.03 1.02 1.02 97 1005.2
20260506235048 10 178 0.0 1.6 0.03 1.02 1.02 96 1005.1
20260506234549 10 165 0.0 3.2 0.03 1.02 1.02 96 1005.2
20260506234047 10 164 0.0 3.2 0.03 1.02 1.02 96 1005.3
20260506233551 10 159 0.0 1.6 0.03 1.02 1.02 96 1005.3
20260506233100 10 123 0.0 3.2 0.05 1.02 1.02 96 1005.4
20260506232546 11 140 0.0 3.2 0.05 1.02 1.02 96 1005.4
20260506232046 11 215 0.0 1.6 0.05 1.02 1.02 96 1005.4
20260506231547 11 133 0.0 1.6 0.05 1.02 1.02 96 1005.3
20260506231048 11 164 0.0 0.0 0.03 0.99 0.99 96 1005.4
20260506230545 11 184 0.0 1.6 0.03 0.99 0.99 96 1005.4
20260506230048 11 170 0.0 1.6 0.03 0.99 0.99 96 1005.5
20260506225548 11 264 0.0 1.6 0.05 0.99 0.99 96 1005.5
20260506225044 11 182 0.0 1.6 0.05 0.99 0.99 96 1005.6
20260506224545 11 168 0.0 3.2 0.05 0.99 0.99 96 1005.6
20260506224044 11 207 0.0 3.2 0.08 0.99 0.99 96 1005.6
20260506223544 11 134 0.0 3.2 0.08 0.99 0.99 96 1005.7
20260506223043 11 161 0.0 1.6 0.05 0.97 0.97 96 1005.8
20260506222543 11 232 0.0 4.8 0.08 0.97 0.97 96 1005.8
20260506222042 11 125 0.0 9.7 0.10 0.97 0.97 96 1005.9
20260506221547 11 72 0.0 9.7 0.15 0.97 0.97 96 1005.9
20260506221041 11 90 0.0 1.6 0.18 0.97 0.97 96 1006.0
20260506220543 10 240 0.0 1.6 0.20 0.97 0.97 96 1006.0
20260506220042 10 193 0.0 0.0 0.23 0.97 0.97 96 1006.0
20260506215543 10 265 0.0 0.0 0.20 0.94 0.94 96 1006.0
20260506215040 10 223 0.0 0.0 0.23 0.94 0.94 96 1006.0
20260506214540 10 315 0.0 0.0 0.25 0.94 0.94 96 1006.0
20260506214041 10 227 0.0 1.6 0.23 0.91 0.91 96 1006.1
20260506213540 10 163 0.0 1.6 0.25 0.91 0.91 95 1006.2
20260506213038 10 215 0.0 1.6 0.25 0.91 0.91 95 1006.2
20260506212539 10 211 0.0 6.4 0.23 0.89 0.89 95 1006.2
20260506212041 10 212 0.0 6.4 0.20 0.84 0.84 95 1006.3
20260506211537 11 182 0.0 1.6 0.18 0.81 0.81 95 1006.4
20260506211037 11 130 0.0 1.6 0.18 0.79 0.79 95 1006.4
20260506210538 11 159 0.0 0.0 0.18 0.76 0.76 95 1006.5
20260506210038 11 320 0.0 0.0 0.28 0.71 0.71 95 1006.4
20260506205542 11 161 0.0 0.0 0.30 0.71 0.71 95 1006.4
20260506205036 11 160 0.0 0.0 0.33 0.71 0.71 95 1006.4
20260506204538 11 166 0.0 0.0 0.36 0.69 0.69 95 1006.4
20260506204036 11 161 0.0 0.0 0.38 0.69 0.69 95 1006.4
20260506203537 11 155 0.0 0.0 0.38 0.66 0.66 95 1006.3
20260506203037 11 177 0.0 0.0 0.38 0.66 0.66 95 1006.2
20260506202536 11 184 0.0 0.0 0.43 0.66 0.66 95 1006.5
20260506202036 11 169 0.0 0.0 0.46 0.64 0.64 95 1006.4
20260506201536 11 165 0.0 0.0 0.53 0.64 0.64 95 1006.4
20260506201035 11 150 0.0 0.0 0.53 0.61 0.61 95 1006.6
20260506200534 11 175 0.0 0.0 0.51 0.56 0.56 95 1006.7
20260506200041 11 207 0.0 0.0 0.43 0.46 0.46 95 1006.8
20260506195636 11 191 0.0 0.0 0.41 0.43 0.43 95 1006.9
20260506195033 11 142 0.0 0.0 0.38 0.38 0.38 95 1006.9
20260506194534 11 209 0.0 0.0 0.33 0.33 0.33 95 1006.8
20260506194033 11 209 0.0 0.0 0.30 0.30 0.30 94 1006.8
20260506193532 11 210 0.0 0.0 0.28 0.28 0.28 94 1006.9
20260506193032 11 164 0.0 0.0 0.28 0.28 0.28 94 1007.1
20260506192532 11 160 0.0 0.0 0.23 0.23 0.23 94 1007.1
20260506192032 11 227 0.0 0.0 0.18 0.18 0.18 93 1007.3
20260506191531 11 110 0.0 0.0 0.10 0.10 0.10 93 1007.0
20260506191030 11 169 0.0 6.4 0.08 0.08 0.08 93 1006.8
20260506190530 11 196 0.0 6.4 0.05 0.05 0.05 92 1006.7
20260506190030 11 258 0.0 4.8 0.03 0.03 0.03 92 1006.7
20260506185529 11 263 0.0 4.8 0.00 0.00 0.00 92 1006.8
20260506185027 11 241 0.0 0.0 0.00 0.00 0.00 91 1006.9
20260506184528 11 127 0.0 1.6 0.00 0.00 0.00 91 1006.9
20260506184032 11 157 0.0 1.6 0.00 0.00 0.00 91 1006.9
20260506183527 11 198 0.0 1.6 0.00 0.00 0.00 90 1006.8
20260506183033 12 208 0.0 1.6 0.00 0.00 0.00 90 1006.9
20260506182527 12 129 0.0 1.6 0.00 0.00 0.00 88 1007.0
20260506182026 12 116 0.0 1.6 0.00 0.00 0.00 87 1007.0
20260506181525 12 109 0.0 1.6 0.00 0.00 0.00 87 1006.9
20260506181027 12 121 0.0 1.6 0.00 0.00 0.00 87 1006.9
20260506180525 12 221 0.0 1.6 0.00 0.00 0.00 87 1007.0
20260506180026 12 169 0.0 1.6 0.00 0.00 0.00 86 1007.0
20260506175525 12 167 0.0 1.6 0.00 0.00 0.00 87 1007.1
20260506175024 12 86 0.0 1.6 0.00 0.00 0.00 87 1007.1
20260506174523 12 232 0.0 1.6 0.00 0.00 0.00 87 1007.3
20260506174023 12 198 0.0 1.6 0.00 0.00 0.00 87 1007.3
20260506173522 12 173 0.0 1.6 0.00 0.00 0.00 87 1007.4
20260506173024 12 215 0.0 0.0 0.00 0.00 0.00 87 1007.5
20260506172521 12 51 0.0 0.0 0.00 0.00 0.00 86 1007.6
20260506172020 12 196 0.0 0.0 0.00 0.00 0.00 85 1007.7
20260506171519 12 167 0.0 0.0 0.00 0.00 0.00 86 1007.7
20260506171021 13 256 0.0 0.0 0.00 0.00 0.00 85 1007.7
20260506170519 13 128 0.0 0.0 0.00 0.00 0.00 85 1007.9
20260506170017 13 180 0.0 0.0 0.00 0.00 0.00 85 1007.9
20260506165518 13 162 0.0 1.6 0.00 0.00 0.00 85 1008.1
20260506165017 13 161 0.0 1.6 0.00 0.00 0.00 85 1008.2
20260506164516 13 164 0.0 0.0 0.00 0.00 0.00 85 1008.2
20260506164016 13 159 0.0 0.0 0.00 0.00 0.00 86 1008.2
20260506163516 13 167 0.0 0.0 0.00 0.00 0.00 86 1008.3
20260506163019 13 232 0.0 0.0 0.00 0.00 0.00 85 1008.6
20260506162515 13 200 0.0 0.0 0.00 0.00 0.00 85 1008.7
20260506162015 13 123 0.0 0.0 0.00 0.00 0.00 85 1008.7
20260506161515 13 143 0.0 0.0 0.00 0.00 0.00 85 1008.7
20260506161014 13 170 0.0 0.0 0.00 0.00 0.00 85 1008.9
20260506160517 13 182 0.0 0.0 0.00 0.00 0.00 85 1009.0
20260506160018 13 94 0.0 0.0 0.00 0.00 0.00 85 1009.1
20260506155518 13 148 0.0 0.0 0.00 0.00 0.00 85 1009.0
20260506155015 13 196 0.0 0.0 0.00 0.00 0.00 85 1009.1
20260506154516 13 213 0.0 0.0 0.00 0.00 0.00 85 1009.1
20260506154014 13 173 0.0 0.0 0.00 0.00 0.00 85 1009.2
20260506153513 13 121 0.0 0.0 0.00 0.00 0.00 85 1009.3
20260506153014 13 236 0.0 0.0 0.00 0.00 0.00 84 1009.3
20260506152513 13 177 0.0 0.0 0.00 0.00 0.00 85 1009.2
20260506152014 13 173 0.0 1.6 0.00 0.00 0.00 85 1009.1
20260506151513 13 165 0.0 1.6 0.00 0.00 0.00 85 1009.2
20260506151013 13 118 0.0 0.0 0.00 0.00 0.00 85 1009.2
20260506150513 13 184 0.0 0.0 0.00 0.00 0.00 85 1009.1
20260506150015 13 211 0.0 0.0 0.00 0.00 0.00 85 1009.0
20260506145515 13 217 0.0 0.0 0.00 0.00 0.00 85 1008.9
20260506145013 13 248 0.0 1.6 0.00 0.00 0.00 85 1008.7
20260506144512 13 212 0.0 1.6 0.00 0.00 0.00 85 1008.6
20260506144012 13 77 0.0 0.0 0.00 0.00 0.00 85 1008.6
20260506143512 13 223 0.0 0.0 0.00 0.00 0.00 85 1008.7
20260506143011 13 178 0.0 0.0 0.00 0.00 0.00 86 1008.6
20260506142513 13 182 0.0 0.0 0.00 0.00 0.00 86 1008.8
20260506142011 13 159 0.0 0.0 0.00 0.00 0.00 85 1009.0
20260506141510 13 137 0.0 0.0 0.00 0.00 0.00 86 1009.1
20260506141013 13 171 0.0 0.0 0.00 0.00 0.00 86 1009.3
20260506140511 13 146 0.0 0.0 0.00 0.00 0.00 86 1009.4
20260506140011 13 202 0.0 0.0 0.00 0.00 0.00 86 1009.4
20260506135510 13 155 0.0 0.0 0.00 0.00 0.00 86 1009.4
20260506135010 13 119 0.0 0.0 0.00 0.00 0.00 86 1009.4
20260506134510 13 119 0.0 0.0 0.00 0.00 0.00 86 1009.4
20260506134010 13 212 0.0 0.0 0.00 0.00 0.00 86 1009.4
20260506133509 13 211 0.0 0.0 0.00 0.00 0.00 86 1009.3
20260506133012 13 215 0.0 1.6 0.00 0.00 0.00 85 1009.1
20260506132512 13 175 0.0 1.6 0.00 0.00 0.00 85 1009.1
20260506132013 13 175 0.0 1.6 0.00 0.00 0.00 84 1009.1
20260506131513 13 200 0.0 0.0 0.00 0.00 0.00 85 1009.0
20260506131010 13 200 0.0 0.0 0.00 0.00 0.00 84 1008.9
20260506130511 13 159 0.0 0.0 0.00 0.00 0.00 86 1009.0
20260506130013 13 155 0.0 0.0 0.00 0.00 0.00 86 1008.9
20260506125508 13 152 0.0 0.0 0.00 0.00 0.00 86 1009.0
20260506125005 13 184 0.0 0.0 0.00 0.00 0.00 86 1009.0
20260506124505 13 144 0.0 0.0 0.00 0.00 0.00 87 1009.2
20260506124003 12 144 0.0 0.0 0.00 0.00 0.00 88 1009.2
20260506123503 12 144 0.0 0.0 0.00 0.00 0.00 87 1009.2
20260506123002 12 112 0.0 0.0 0.00 0.00 0.00 88 1009.3
20260506122502 12 112 0.0 0.0 0.00 0.00 0.00 88 1009.3
20260506122100 12 112 0.0 0.0 0.00 0.00 0.00 87 1009.3
20260506121613 12 112 0.0 0.0 0.00 0.00 0.00 88 1009.5
20260506121059 12 103 0.0 0.0 0.00 0.00 0.00 88 1009.4
20260506120558 12 103 0.0 0.0 0.00 0.00 0.00 88 1009.4
20260506120119 12 103 0.0 0.0 0.00 0.00 0.00 88 1009.6
20260506115557 11 103 0.0 0.0 0.00 0.00 0.00 88 1009.5
20260506115056 11 103 0.0 0.0 0.00 0.00 0.00 88 1009.6
20260506114557 11 103 0.0 0.0 0.00 0.00 0.00 89 1009.4
20260506114055 11 103 0.0 0.0 0.00 0.00 0.00 89 1009.8
20260506113555 11 103 0.0 0.0 0.00 0.00 0.00 89 1009.8
20260506113103 11 103 0.0 0.0 0.00 0.00 0.00 89 1009.7
20260506112554 11 103 0.0 0.0 0.00 0.00 0.00 90 1009.9
20260506112054 11 103 0.0 0.0 0.00 0.00 0.00 90 1010.1
20260506111554 11 103 0.0 0.0 0.00 0.00 0.00 90 1010.0
20260506111053 11 103 0.0 0.0 0.00 0.00 0.00 90 1009.9
20260506110552 10 103 0.0 0.0 0.00 0.00 0.00 90 1009.9
20260506110054 10 103 0.0 0.0 0.00 0.00 0.00 90 1009.8
20260506105552 10 103 0.0 0.0 0.00 0.00 0.00 90 1009.8
20260506105051 10 103 0.0 0.0 0.00 0.00 0.00 90 1009.8
20260506104552 10 103 0.0 0.0 0.00 0.00 0.00 90 1009.9
20260506104050 10 103 0.0 0.0 0.00 0.00 0.00 90 1009.7
20260506103552 10 103 0.0 0.0 0.00 0.00 0.00 90 1009.7
20260506103053 10 103 0.0 0.0 0.00 0.00 0.00 90 1009.6
20260506102550 10 155 0.0 0.0 0.00 0.00 0.00 90 1009.5
20260506102052 10 155 0.0 0.0 0.00 0.00 0.00 91 1009.7
20260506101550 10 155 0.0 0.0 0.00 0.00 0.00 91 1009.6
20260506101049 10 155 0.0 0.0 0.00 0.00 0.00 91 1009.4
20260506100548 10 155 0.0 0.0 0.00 0.00 0.00 91 1009.5
20260506100048 10 155 0.0 0.0 0.00 0.00 0.00 90 1009.6
20260506095549 10 155 0.0 0.0 0.00 0.00 0.00 90 1009.5
20260506095048 10 155 0.0 0.0 0.00 0.00 0.00 89 1009.6
20260506094549 10 155 0.0 0.0 0.00 0.00 0.00 89 1009.6
20260506094046 10 155 0.0 0.0 0.00 0.00 0.00 89 1009.6
20260506093546 10 155 0.0 0.0 0.00 0.00 0.00 89 1009.6
20260506093050 10 155 0.0 0.0 0.00 0.00 0.00 89 1009.7
20260506092547 10 155 0.0 0.0 0.00 0.00 0.00 89 1009.6
20260506092045 10 155 0.0 0.0 0.00 0.00 0.00 89 1009.4
20260506091545 10 155 0.0 0.0 0.00 0.00 0.00 89 1009.4
20260506091043 10 155 0.0 0.0 0.00 0.00 0.00 88 1009.4
20260506090542 10 155 0.0 0.0 0.00 0.00 0.00 88 1009.2
20260506090043 10 155 0.0 0.0 0.00 0.00 0.00 88 1009.1